Theta_e
351 352 350 347 347 344 347 347 348 347 346 345 346 343 345 347 349 349 347 349 348 348 348 345 345 345 342 346 344 343 343 342 340 336 340 343 343 339 335 346 344 344 341
355 353 351 351 345 345 345 347 349 348 345 342 341 340 340 342 345 347 349 349 350 349 349 347 345 345 343 343 345 343 344 344 343 343 340 337 341 342 339 335 345 343 343
356 356 355 348 346 347 352 349 348 345 344 343 343 342 340 339 338 341 345 346 349 348 349 348 346 344 343 339 342 343 344 344 345 344 344 343 340 338 337 339 336 340 343
357 355 350 347 351 347 346 347 347 346 346 345 342 339 339 338 337 337 336 340 343 344 348 348 348 346 345 344 344 342 344 344 344 344 344 343 343 342 339 337 338 338 336
353 352 349 349 349 346 346 349 346 347 346 343 341 339 338 336 336 336 338 339 340 342 341 342 345 346 346 347 344 342 342 344 344 344 344 344 343 343 344 341 338 336 335
352 351 350 351 352 346 347 352 352 347 341 342 342 338 335 336 339 338 337 336 333 337 336 340 342 341 344 346 346 345 343 343 343 344 343 343 344 344 344 344 344 342 338
352 353 350 349 351 349 357 355 352 345 338 336 338 336 335 335 339 339 335 337 337 339 338 337 337 339 342 341 339 339 344 344 343 343 344 345 343 343 345 344 344 345 344
355 355 354 352 351 352 351 355 354 345 338 335 338 339 340 336 337 336 337 336 338 337 337 337 337 337 337 338 337 337 338 339 340 340 343 344 344 344 344 345 345 344 345
356 356 356 357 358 357 352 354 349 344 337 336 339 341 341 339 338 337 336 335 334 334 333 333 333 332 330 331 332 334 336 338 339 342 343 343 342 343 345 346 345 344 344
355 356 358 358 359 357 353 351 346 344 338 338 337 338 339 340 341 340 333 332 331 331 329 329 328 327 327 327 328 328 328 328 329 331 334 336 339 340 343 345 346 346 345
358 357 357 358 360 356 353 351 345 342 339 339 338 339 337 336 334 333 334 331 329 328 326 326 326 326 328 329 329 330 329 329 329 329 330 333 334 332 335 340 343 346 346
357 358 357 358 358 355 352 347 343 341 344 343 343 340 334 332 331 330 331 330 329 326 325 326 327 327 328 329 328 327 328 329 329 328 328 329 329 329 329 332 343 346 346
351 356 357 357 354 352 347 346 344 343 343 342 342 338 332 330 328 327 326 325 326 325 326 326 326 327 327 328 327 327 328 328 327 328 329 328 328 328 328 327 333 345 346
350 354 358 356 351 347 347 345 343 342 342 342 340 336 333 329 326 325 324 326 329 328 326 328 327 327 327 327 328 328 329 329 328 328 329 329 328 328 328 330 328 341 339
353 357 357 353 348 347 347 344 343 342 342 341 336 333 331 327 325 325 325 325 326 332 330 328 329 327 327 328 330 330 328 328 328 327 327 326 327 328 328 328 329 330 328
359 359 354 349 347 347 346 344 342 341 343 337 332 330 331 328 327 326 324 324 326 329 333 328 328 328 329 331 329 327 326 325 325 326 325 325 325 325 327 326 329 331 331
363 361 354 350 346 347 346 344 344 342 338 335 333 332 330 329 328 327 324 325 326 327 331 330 328 329 330 328 324 323 323 324 324 325 325 326 326 327 327 326 326 328 327
365 360 353 349 347 347 344 344 343 340 335 334 332 331 331 329 328 326 324 325 326 328 329 331 329 330 327 324 322 321 322 324 325 325 326 328 327 327 326 325 325 327 327
363 360 353 347 348 346 344 343 342 339 334 333 333 331 330 330 328 325 325 326 326 326 326 327 328 327 324 321 320 320 321 322 324 327 326 327 326 326 326 326 327 326 327
361 355 349 346 348 345 344 343 340 337 334 333 332 331 331 329 325 322 326 325 326 325 325 326 326 324 321 319 319 320 321 322 325 326 326 327 328 328 327 326 327 328 328
359 356 350 349 347 345 343 341 338 335 334 334 333 332 330 326 321 322 324 325 322 322 325 326 325 321 318 317 317 318 319 320 322 325 326 327 328 330 329 328 328 327 327
355 353 350 349 346 343 340 336 335 333 333 333 333 331 330 324 323 322 324 321 318 321 325 324 322 320 319 318 318 319 321 322 324 326 327 328 329 330 331 331 331 329 329
351 350 349 347 344 342 333 333 331 328 331 332 332 331 326 323 324 324 322 317 321 324 325 322 321 319 317 316 316 319 325 322 324 326 326 327 328 331 329 330 330 330 329
350 347 347 344 342 339 335 335 329 330 332 332 332 327 324 324 323 321 315 318 321 323 323 321 319 317 315 314 315 323 325 325 325 326 326 328 328 329 331 333 331 329 329
350 347 344 342 340 338 336 332 327 330 331 332 328 325 322 321 322 316 313 317 320 320 320 320 318 316 315 313 314 318 325 326 327 327 328 329 331 332 337 336 335 330 332
345 343 340 339 339 338 336 331 327 330 329 328 324 322 319 318 315 311 311 315 317 316 314 317 318 314 315 311 314 315 317 323 325 329 329 327 333 337 343 339 337 334 331
Wind_Speed
4 5 4 6 3 6 2 6 8 10 10 11 8 12 14 17 16 17 15 10 15 13 12 14 15 16 16 17 19 18 17 15 16 16 17 17 16 16 16 16 15 15 14
5 7 6 9 4 5 9 8 7 8 9 10 10 11 13 14 13 15 18 17 15 16 18 14 15 16 16 17 20 21 20 19 18 18 18 18 19 18 18 18 19 18 18
3 6 9 4 5 6 7 7 10 9 11 12 11 12 12 11 13 14 15 16 17 17 18 15 14 15 18 17 20 24 24 23 22 21 20 20 20 21 21 20 20 20 20
3 6 8 5 8 6 6 8 10 14 13 15 15 15 14 13 13 13 14 13 13 16 12 12 12 14 17 21 24 26 28 26 26 26 24 22 22 22 22 22 21 21 23
4 4 7 5 5 6 6 9 14 14 15 15 15 16 14 14 12 11 11 11 12 12 12 15 12 12 18 16 19 19 23 26 28 28 28 28 26 25 24 24 23 23 24
6 5 8 3 5 6 6 8 9 12 14 13 16 16 15 9 8 7 9 11 12 9 14 11 14 18 17 12 14 15 19 24 27 29 29 29 30 30 28 27 25 24 24
9 7 9 6 5 7 4 6 10 12 12 12 14 17 16 7 5 9 13 10 11 8 13 15 15 14 14 15 20 22 20 18 20 24 30 30 29 31 32 32 29 27 26
11 10 9 9 7 8 8 5 6 10 11 10 9 16 7 12 12 18 7 12 8 14 14 14 18 17 17 17 18 20 19 22 27 26 24 28 32 33 33 33 32 31 29
14 11 10 9 8 7 10 7 6 7 11 11 4 5 5 6 17 9 13 9 15 16 16 18 17 17 17 19 19 20 21 21 21 22 23 23 26 30 32 35 34 33 33
13 12 11 10 8 8 5 4 5 6 7 11 11 8 6 11 9 10 16 19 17 16 18 18 19 19 16 21 21 23 25 26 26 26 26 27 28 27 28 31 33 36 36
13 14 15 13 13 9 8 4 3 5 8 9 12 12 13 15 14 14 12 19 23 22 22 21 20 22 21 19 22 24 25 24 24 27 27 27 28 29 29 31 32 35 37
18 20 16 14 10 8 6 5 4 4 6 7 8 12 13 13 16 17 12 17 20 25 25 25 22 22 23 22 25 28 27 28 30 31 31 30 30 32 31 30 29 32 35
18 14 19 15 12 10 7 5 5 4 6 6 9 12 13 13 15 18 20 20 16 24 27 26 25 24 25 25 27 30 31 33 36 36 32 33 35 36 34 33 31 31 31
19 19 15 13 11 8 7 6 5 6 6 6 7 10 12 14 16 18 20 21 14 18 24 26 26 26 27 26 30 30 32 34 35 35 30 28 30 30 29 30 32 32 32
19 16 13 12 10 8 8 8 6 7 5 5 9 9 10 15 17 19 22 23 22 14 13 24 26 29 33 36 36 33 37 39 37 40 41 40 33 32 33 33 31 32 33
21 14 16 15 11 10 9 8 7 7 5 5 9 8 10 14 17 19 22 24 25 24 14 28 29 32 35 36 40 41 38 37 37 39 40 41 41 39 37 34 32 30 30
19 20 17 12 11 11 10 9 6 6 6 7 9 11 12 14 18 21 23 24 25 26 19 29 34 37 38 36 42 42 36 34 33 36 36 36 35 35 35 35 35 36 33
21 23 21 18 12 13 10 9 8 7 7 9 10 10 13 16 17 19 21 24 27 26 27 28 32 36 37 41 38 41 38 32 31 32 33 33 34 35 35 35 36 35 36
19 19 16 12 12 13 11 9 8 8 9 10 10 11 14 16 19 19 21 22 25 27 29 31 33 35 41 37 39 38 37 36 33 30 31 34 34 36 33 33 34 35 34
16 18 20 18 19 13 10 9 8 9 9 10 10 12 15 18 18 21 19 23 23 29 30 30 34 36 37 39 32 31 34 29 27 24 25 26 26 27 29 36 34 32 32
16 19 16 15 15 11 10 10 9 9 8 9 11 14 16 18 23 17 19 19 24 27 27 30 30 33 34 31 30 36 32 34 30 26 23 23 22 22 25 31 31 39 35
18 14 15 14 12 10 11 12 8 6 7 8 12 15 18 20 12 19 15 25 26 28 27 26 32 29 31 35 36 34 31 21 7 12 18 19 22 23 22 23 27 34 34
15 15 15 12 10 8 6 7 8 8 9 10 12 14 17 18 18 14 20 25 24 24 22 26 30 35 35 38 40 36 21 12 15 18 17 16 18 21 24 24 28 26 34
19 18 15 14 12 10 9 7 8 8 9 11 12 14 15 15 15 19 23 22 23 23 21 22 31 36 38 42 37 26 17 14 14 18 17 6 19 24 24 26 26 25 26
20 19 15 12 11 10 8 10 9 7 10 11 12 13 14 13 14 19 18 20 22 23 22 21 31 46 44 40 39 33 21 12 4 10 12 12 18 19 16 16 21 25 22
23 16 13 14 12 9 9 9 10 7 11 10 12 9 5 3 13 17 17 17 21 23 29 27 23 43 50 44 41 37 29 18 11 6 13 18 15 13 3 10 13 14 17
Wind_Direction
325 325 333 324 299 352 354 348 6 347 334 319 320 316 311 304 298 289 296 286 290 286 290 284 275 273 267 257 254 254 256 253 251 247 244 243 241 239 234 237 235 235 237
343 338 319 298 331 351 357 339 341 325 323 335 327 323 316 305 297 293 295 304 300 292 286 279 276 273 273 265 256 257 258 258 256 254 250 247 246 245 241 234 236 242 241
313 290 277 308 342 355 295 308 322 337 337 338 326 326 315 314 308 310 304 293 274 278 269 266 284 277 274 268 267 263 257 257 259 258 255 251 248 247 244 239 238 239 238
271 276 268 326 15 306 340 340 344 347 337 331 337 330 325 320 314 303 288 298 309 304 299 256 287 285 285 277 270 260 259 255 256 257 257 254 253 248 246 243 241 239 241
249 273 292 1 359 323 338 346 353 336 337 330 332 331 325 321 317 323 321 308 292 281 300 302 274 292 295 288 274 264 257 260 260 257 255 255 255 254 250 247 245 242 242
233 258 291 282 306 317 337 349 330 331 326 332 333 326 324 311 318 319 326 306 306 312 301 304 300 294 290 284 293 282 268 261 258 260 258 256 255 255 254 250 247 246 243
243 249 260 266 276 285 332 320 329 331 333 347 332 334 319 285 337 311 327 332 311 313 324 301 293 300 302 305 300 290 283 274 270 262 257 257 255 256 256 253 249 247 245
241 249 251 260 277 291 300 303 331 323 327 345 328 317 331 321 4 326 316 318 328 318 308 306 313 304 297 291 290 296 290 285 282 277 265 258 258 255 255 254 251 248 246
238 239 244 261 289 285 305 352 317 319 326 328 330 304 330 335 330 331 310 316 326 308 306 304 300 291 298 292 291 287 284 280 286 277 271 267 262 259 254 251 250 249 246
229 228 228 236 250 274 296 293 311 317 304 316 323 319 313 290 304 309 312 308 307 306 306 302 302 296 295 295 293 290 286 287 287 283 279 275 270 264 259 254 249 248 245
220 221 221 228 223 210 213 203 263 294 304 306 321 318 306 295 303 307 310 315 316 314 314 306 307 298 290 295 295 292 288 282 279 281 280 274 272 270 264 259 255 248 243
220 226 226 220 207 219 210 199 213 263 278 304 301 302 307 319 313 316 310 310 309 311 314 308 301 305 301 295 299 299 298 297 289 278 275 276 276 275 270 264 258 253 244
220 220 219 212 211 216 210 206 216 225 263 285 299 307 306 311 312 313 310 307 307 307 303 305 305 302 301 299 298 301 294 291 287 285 276 273 274 275 271 267 259 252 246
233 230 227 216 217 207 216 213 224 231 255 278 307 289 303 308 313 312 311 309 300 301 305 298 304 306 307 306 304 301 299 288 281 281 287 282 272 269 269 267 260 253 249
236 221 209 213 216 220 222 218 237 239 247 269 275 277 287 311 314 318 307 307 307 300 302 305 312 316 308 304 302 303 302 287 281 278 275 271 269 271 269 266 262 257 251
224 223 212 200 205 226 222 221 251 261 220 261 272 295 297 304 312 312 313 307 301 297 305 310 312 305 304 307 308 304 300 294 285 277 275 273 265 263 264 264 258 254 249
217 219 217 219 207 218 216 225 244 257 251 257 268 281 299 306 312 317 314 305 315 315 313 304 310 304 307 311 307 305 301 293 284 279 276 269 264 260 259 256 256 252 253
218 224 212 208 211 219 217 220 235 251 241 250 266 287 299 308 311 311 318 316 315 313 314 309 309 306 310 313 304 300 299 291 286 277 273 263 260 260 260 255 252 247 247
220 208 207 193 235 215 215 218 233 243 250 256 275 292 302 309 309 317 320 313 317 315 316 308 307 311 309 312 306 301 297 291 288 282 276 261 258 255 255 253 252 243 240
213 202 193 192 213 211 211 210 226 236 245 263 279 294 305 310 320 315 314 317 318 321 312 312 314 310 313 311 302 297 298 291 282 279 274 259 257 256 253 248 243 237 234
214 208 201 205 209 209 212 213 224 237 253 276 287 298 304 314 308 309 311 319 319 316 313 313 318 315 311 312 309 302 286 284 284 274 270 261 261 257 249 243 240 239 235
197 193 216 212 209 210 219 202 206 244 264 278 287 300 309 311 335 324 320 319 321 307 314 330 320 311 311 312 308 305 288 276 285 269 251 259 252 258 251 247 238 227 228
180 198 203 207 212 197 185 208 229 238 264 279 291 299 307 315 324 326 322 323 323 325 329 336 334 326 322 323 317 307 311 263 266 268 279 283 271 260 257 255 245 243 226
192 194 198 194 192 195 202 231 243 239 267 279 287 301 307 313 317 323 326 323 323 328 340 335 348 337 337 337 333 328 325 310 303 294 276 267 267 267 264 256 238 234 234
181 176 186 187 192 182 213 239 234 243 270 273 295 295 289 304 304 325 330 325 324 329 334 330 347 5 1 356 0 6 354 339 312 306 334 261 276 278 268 226 227 209 225
170 177 174 179 191 196 212 228 226 255 283 298 300 311 303 319 332 335 330 326 326 328 328 323 337 358 8 1 10 11 360 359 348 323 357 343 295 304 248 220 201 187 185